CDT,Max TemperatureF,Mean TemperatureF,Min TemperatureF,Max Dew PointF,MeanDew PointF,Min DewpointF,Max Humidity, Mean Humidity, Min Humidity, Max Sea Level PressureIn, Mean Sea Level PressureIn, Min Sea Level PressureIn, Max VisibilityMiles, Mean VisibilityMiles, Min VisibilityMiles, Max Wind SpeedMPH, Mean Wind SpeedMPH, Max Gust SpeedMPH,PrecipitationIn, CloudCover, Events, WindDirDegrees
2013-4-1,27,16,5,12,7,1,88,69,50,30.40,30.35,30.26,10,10,10,12,5,13,0.00,0,,262
2013-4-2,28,16,3,19,11,1,88,72,55,30.40,30.32,30.17,10,10,6,15,5,,0.00,0,,116
2013-4-3,43,34,25,31,26,18,85,71,57,30.17,30.01,29.87,10,10,10,29,16,35,0.00,2,,237
2013-4-4,32,27,22,24,21,19,88,76,63,30.33,30.28,30.18,10,10,10,20,10,23,0.00,1,,336
2013-4-5,33,27,20,28,22,16,92,84,75,30.24,29.97,29.75,10,10,10,23,16,28,T,5,,108
2013-4-6,32,28,24,30,28,23,100,93,85,29.93,29.77,29.63,10,5,0,16,7,20,0.00,7,Fog,331
2013-4-7,37,34,30,32,30,27,100,91,82,29.92,29.78,29.69,10,7,0,15,8,17,0.08,8,Fog-Snow,117
2013-4-8,32,22,11,30,15,5,100,84,67,30.46,30.10,29.82,10,5,0,25,17,30,0.01,7,Fog-Snow,358
2013-4-9,28,18,7,19,11,3,88,76,63,30.56,30.50,30.45,10,10,10,17,13,21,0.00,0,,304
2013-4-10,30,23,16,21,16,12,88,76,63,30.46,30.31,30.14,10,10,10,16,7,18,0.00,1,,348
2013-4-11,33,28,22,25,22,17,92,77,61,30.11,29.98,29.93,10,6,2,14,6,17,0.01,8,Snow,55
2013-4-12,32,28,23,27,25,23,92,88,84,30.03,29.97,29.92,10,6,2,13,7,16,0.01,8,Snow,345
2013-4-13,30,23,15,27,22,15,100,88,75,29.98,29.86,29.76,10,5,0,23,11,28,0.00,4,Fog,89
2013-4-14,29,25,20,27,22,17,92,84,75,29.87,29.81,29.74,10,5,0,24,18,31,0.09,6,Fog-Snow,40
2013-4-15,31,27,23,27,25,22,92,85,78,30.13,29.87,29.73,10,3,0,24,16,29,0.03,8,Fog-Snow,331
2013-4-16,31,26,20,25,22,18,96,83,69,30.45,30.26,30.06,10,9,1,16,9,17,T,7,Snow,339
2013-4-17,29,24,19,23,21,19,96,83,69,30.44,30.34,30.24,10,8,1,17,9,21,0.01,6,Snow,298
2013-4-18,30,24,17,23,15,12,84,76,68,30.28,30.22,30.16,10,10,10,18,15,,0.00,0,,296
2013-4-19,34,26,17,21,19,16,74,61,47,30.14,30.13,30.12,10,10,10,13,7,16,0.00,0,,357
2013-4-20,33,23,13,29,21,9,92,74,55,30.15,30.06,29.94,10,8,0,30,12,37,0.03,6,Fog-Snow,147
2013-4-21,34,31,27,32,28,21,92,82,72,30.28,30.00,29.84,10,7,1,31,19,37,0.20,8,Rain-Snow,255
2013-4-22,30,24,18,22,17,13,84,69,53,30.47,30.41,30.29,10,10,10,22,13,26,0.00,2,,298
2013-4-23,38,28,17,29,21,12,85,73,61,30.41,30.19,30.03,10,10,10,20,8,24,0.00,1,,248
2013-4-24,32,27,22,28,24,18,85,77,69,30.12,30.00,29.89,10,8,0,36,18,41,T,4,Fog-Snow,275
2013-4-25,51,35,18,35,26,14,89,71,52,30.09,29.92,29.79,10,10,10,17,8,23,0.00,2,,166
2013-4-26,63,49,34,42,34,28,89,60,30,30.04,29.96,29.89,10,10,10,16,8,21,0.00,0,,192
2013-4-27,72,60,47,40,36,31,59,45,31,29.91,29.77,29.65,10,10,10,22,12,29,0.00,1,,218
2013-4-28,55,45,34,38,31,22,76,53,30,29.93,29.79,29.60,10,10,10,30,15,36,0.00,1,,283
2013-4-29,64,48,31,41,31,21,78,55,31,29.88,29.59,29.43,10,10,10,31,12,38,T,3,Rain,169
2013-4-30,47,37,27,38,27,19,79,68,56,30.17,29.75,29.41,10,10,10,36,21,46,T,6,,270